Preview of NWS' New Version of Forecast
This preview is not operational and should not be used for support decisions.

Regional Weather Roundup (RWR)

Issued by National Weather Service (NWS)

                            
000
ASUS42 KTBW 222216
RWRFL 
FLORIDA REGIONAL WEATHER ROUNDUP
NATIONAL WEATHER SERVICE TAMPA BAY RUSKIN FL
600 PM EDT WED MAY 22 2019

NOTE: "FAIR" INDICATES FEW OR NO CLOUDS BELOW 12,000 FEET WITH NO
SIGNIFICANT WEATHER AND/OR OBSTRUCTIONS TO VISIBILITY.

FLZ001>010-012>015-112-114-115-222300-
PANHANDLE FLORIDA
  
CITY           SKY/WX    TMP DP  RH WIND       PRES   REMARKS
PENSACOLA      FAIR      85  71  63 S9        30.07S                  
PENSACOLA NAS  FAIR      83  73  72 S9        30.07S                  
MILTON NAS     FAIR      86  67  52 SW10      30.07S                  
CRESTVIEW      FAIR      91  56  30 VRB7      30.07S                  
DUKE FIELD     FAIR      90  61  38 SW7       30.06S                  
VALPARAISO     FAIR      85  68  56 SW7       30.06F                  
MARY ESTHER    FAIR      84  71  64 S5        30.06S                  
PANAMA CITY    PTSUNNY   88  68  51 S12       30.05F                  
TYNDALL AFB    FAIR      85  73  68 SW10      30.05F                  
APALACHICOLA   FAIR      86  69  56 S6        30.06S                  

STATION/POSITION SKY/WX   TEMP    WIND        PRES    WAVE   SWELL
                          AIR SEA DIR/SP/G            HT/PER HT/PER
                          (F)     (DEG/KT/KT) (MB)    (FT/S) (FT/S)
30.1N   87.6W                                   N/A     3/ 5
29.2N   88.2W                     120/ 10/ 12 1017.9F   4/ 6   3/ 6
PANAMA CITY BEAC           82 83  230/  6/  7 1018.7S
TOWER C          NOT AVBL

$$
FLZ011-016>038-118-127-128-134-139-239-222300-
NORTH FLORIDA
  
CITY           SKY/WX    TMP DP  RH WIND       PRES   REMARKS
MARIANNA       FAIR      93  64  38 E9G17     30.03S                  
TALLAHASSEE    PTSUNNY   91  67  44 S6        30.05R                  
PERRY          FAIR      81  75  83 CALM      30.07R                  
LIVE OAK       SUNNY     95  63  34 E7        30.05S HX  96           
CROSS CITY     FAIR      88  74  64 W10       30.05R HX  96           
LAKE CITY      FAIR      91  61  35 E10       30.07S                  
GAINESVILLE    FAIR      94  61  33 E13       30.09S                  
WILLISTON      FAIR      92  59  32 E8G16     30.05S                  
PALATKA        FAIR      90  63  40 E14G21    30.11S                  
MAYPORT NAS    FAIR      83  70  64 E14       30.13R                  
JACKSONVILLE   FAIR      85  63  47 E16       30.11S                  
JAX NAS        FAIR      87  62  43 E15       30.12S                  
JAX CECIL      SUNNY     91  61  35 SE17      30.10R                  
FERNANDINA BEA FAIR      82  71  69 SE14      30.13S                  
ST AUGUSTINE   FAIR      82  70  66 E13       30.14R                  
PALM COAST     PTSUNNY   81  70  69 E12       30.13R                  

STATION/POSITION SKY/WX   TEMP    WIND        PRES    WAVE   SWELL
                          AIR SEA DIR/SP/G            HT/PER HT/PER
                          (F)     (DEG/KT/KT) (MB)    (FT/S) (FT/S)
SHELL POINT      NOT AVBL
KEATON BEACH               78      90/ 18/ 21 1019.0R
CEDAR KEY                  85     300/  6/  8 1017.5F
FERNANDINA                        120/  9/ 12   N/A
30.7N   81.3W                 80                N/A     2/ 8
MAYPORT                    81 83  120/ 10/ 14 1020.6R
31.4N   80.9W              79 79  120/ 12/ 14 1020.8R   2/ 8   2/ 8
ST AUGUSTINE               79 83   90/ 10/ 11 1020.7R

$$
FLZ040-043>046-052-053-057-058-063-144-222300-
INTERIOR CENTRAL FLORIDA
  
CITY           SKY/WX    TMP DP  RH WIND       PRES   REMARKS
OCALA          FAIR      92  61  35 E14       30.06F                  
LEESBURG       FAIR      89  59  36 E14       30.08R                  
SANFORD        FAIR      85  63  47 E13       30.11R                  
ORLANDO EXEC   FAIR      86  61  42 E13G22    30.10R                  
ORLANDO INTL   FAIR      86  61  42 E17       30.09S                  
KISSIMMEE      FAIR      86  63  45 E15       30.10R                  
WINTER HAVEN   FAIR      90  58  33 E15       30.08R                  
LAKELAND       MOSUNNY   90  63  40 E12G17    30.06S                  
BARTOW         FAIR      88  57  35 E15       30.06R                  
SEBRING        FAIR      88  63  43 NE17      30.06S                  
OKEECHOBEE     FAIR      82  63  51 NE8       30.07S                  

$$
FLZ041-047-054-059-064-141-147-222300-
EAST CENTRAL FLORIDA
  
CITY           SKY/WX    TMP DP  RH WIND       PRES   REMARKS
ORMOND BEACH   MOSUNNY   82  70  65 E9        30.13R                  
DAYTONA BEACH  FAIR      83  69  62 NE12      30.13R                  
DELAND         FAIR      84  64  51 E12G23    30.11S                  
NEW SMYRNA BEA MOSUNNY   82  68  61 E9        30.14R                  
JFK SPACE CTR  FAIR      82  67  60 E13       30.11R                  
TITUSVILLE     MOSUNNY   86  63  45 E12       30.12R                  
CAPE CANAVERAL FAIR      82  56  41 E10       30.10S                  
PATRICK AFB    FAIR      82  66  57 E14       30.10S                  
MELBOURNE      FAIR      83  65  54 E13       30.10R                  
VERO BEACH     FAIR      82  65  56 E15       30.09S                  
FT PIERCE      FAIR      81  63  54 E14       30.09R                  
STUART         MOSUNNY   82  66  57 E17G23    30.10R                  

STATION/POSITION SKY/WX   TEMP    WIND        PRES    WAVE   SWELL
                          AIR SEA DIR/SP/G            HT/PER HT/PER
                          (F)     (DEG/KT/KT) (MB)    (FT/S) (FT/S)
28.5N   80.2W              80      70/ 10/ 14 1020.1
28.9N   78.5W              78 80   50/ 12/ 16 1020.4R
TRIDENT PIER               80 83   70/ 10/ 12 1021.1R
28.4N   80.5W                 81                N/A     2/ 8
27.5N   80.2W                 80                N/A     2/ 4

$$
FLZ050-056-061-142-242-148-248-149-249-151-251-155-255-
160-260-222300-
WEST CENTRAL FLORIDA
  
CITY           SKY/WX    TMP DP  RH WIND       PRES   REMARKS
CRYSTAL RIVER  FAIR      91  61  35 E8        30.04F                  
INVERNESS      FAIR      91  63  38 E9        30.06S                  
BROOKSVILLE    FAIR      92  58  31 E14       30.05S                  
CLEARWATER AIR FAIR      86  72  62 NW8       30.03F                  
ST PETE CLEARW FAIR      91  67  44 VRB3      30.03S                  
TAMPA INTL     FAIR      93  60  33 E9        30.04S                  
TAMPA EXEC     FAIR      91  63  38 E8        30.05S                  
PLANT CITY     FAIR      91  59  33 E9G16     30.07S                  
MACDILL AFB    FAIR      91  60  34 E15       30.03S                  
PETER O KNIGHT CLOUDY    93  61  33 E12       30.04S                  
ST PETERSBURG  FAIR      88  66  48 E14       30.02S                  
SARASOTA       FAIR      92  59  33 E9        30.00F                  
VENICE         FAIR      90  75  62 NW10      30.03S HX 100           

STATION/POSITION SKY/WX   TEMP    WIND        PRES    WAVE   SWELL
                          AIR SEA DIR/SP/G            HT/PER HT/PER
                          (F)     (DEG/KT/KT) (MB)    (FT/S) (FT/S)
27.3N   84.2W                 82                N/A     2/ 4
CLEARWATER BEACH           83 87  330/  9/ 11 1017.4S
MIDDLE TAMPA BAY           88      90/ 11/ 12 1017.1S
VENICE                     84 83  300/  9/ 11 1016.7S

$$
FLZ066-069-070-075>078-162-262-165-265-222300-
SOUTHWEST FLORIDA AND KEYS
  
CITY           SKY/WX    TMP DP  RH WIND       PRES   REMARKS
PUNTA GORDA    FAIR      91  60  35 E12       30.03S                  
FT MYERS       FAIR      88  60  38 E15       30.01F                  
SOUTHWEST INTL FAIR      90  59  35 E15       30.02S                  
NAPLES         FAIR      90  63  40 E13       30.00F                  
MARCO ISLAND   FAIR      92  64  39 NE8       30.02S                  
IMMOKALEE      FAIR      90  63  40 E14       30.01S                  
MARATHON       FAIR      88  65  46 E12G21    30.01S                  
KEY WEST NAS   FAIR      88  69  53 E16       30.00F                  
KEY WEST INTL  FAIR      85  70  60 E16G22    30.00F                  

STATION/POSITION SKY/WX   TEMP    WIND        PRES    WAVE   SWELL
                          AIR SEA DIR/SP/G            HT/PER HT/PER
                          (F)     (DEG/KT/KT) (MB)    (FT/S) (FT/S)
NAPLES                     89 86              1016.3S
DRY TORTUGAS               83      90/ 15/ 17 1016.1R
SAND KEY                   82                 1015.8S
SOMBRERO KEY               81                 1015.7S

$$
FLZ067-068-071>074-168-172>174-222300-
SOUTHEAST FLORIDA 
  
CITY           SKY/WX    TMP DP  RH WIND       PRES   REMARKS
W PALM BEACH   FAIR      83  67  58 E14       30.07S                  
BOCA RATON     MOSUNNY   86  68  54 E15       30.06S                  
FT LAUDER-EXEC FAIR      85  66  53 NE13G18   30.05S                  
FT LAUDERDALE  FAIR      84  68  58 NE15      30.04S                  
POMPANO BEACH  FAIR      85  64  49 NE15      30.06R                  
PEMBROKE PINES FAIR      85  65  51 NE13      30.06S                  
OPA LOCKA      FAIR      84  66  54 E13       30.05S                  
MIAMI          FAIR      85  66  53 E12G21    30.04S                  
WEST KENDALL   FAIR      86  65  49 E17       30.03S                  
HOMESTEAD      FAIR      84  70  62 NE15G22   30.03S                  

STATION/POSITION SKY/WX   TEMP    WIND        PRES    WAVE   SWELL
                          AIR SEA DIR/SP/G            HT/PER HT/PER
                          (F)     (DEG/KT/KT) (MB)    (FT/S) (FT/S)
PORT EVERGLADES            82      50/ 10/ 14 1017.7
VIRGINIA KEY               82 86   40/ 11/ 17 1016.7S
LAKE WORTH                 80 83              1019.3R
SETTLEMENT POINT           80      60/ 18/ 21 1018.3S

$$